| time (UTC) | temp C | wind direction | speed KPH | gust KPH | rain 1hr cm | rain 24hr cm | rain mn cm | humidity % | barometer mb |
| 20260505152704 | 16 | 155 | 0.0 | 4.8 | 0.00 | 0.00 | 0.00 | 57 | 1009.1 |
| 20260505152215 | 16 | 155 | 1.6 | 4.8 | 0.00 | 0.00 | 0.00 | 55 | 1009.1 |
| 20260505151705 | 16 | 157 | 1.6 | 3.2 | 0.00 | 0.00 | 0.00 | 55 | 1009.0 |
| 20260505151204 | 16 | 161 | 1.6 | 4.8 | 0.00 | 0.00 | 0.00 | 54 | 1009.1 |
| 20260505150704 | 16 | 161 | 1.6 | 4.8 | 0.00 | 0.00 | 0.00 | 54 | 1009.1 |
| 20260505150203 | 16 | 157 | 0.0 | 6.4 | 0.00 | 0.00 | 0.00 | 55 | 1009.1 |
| 20260505140205 | 16 | 125 | 0.0 | 8.0 | 0.00 | 0.00 | 0.00 | 55 | 1009.2 |
| 20260505130205 | 17 | 127 | 0.0 | 8.0 | 0.00 | 0.00 | 0.00 | 54 | 1009.5 |
| 20260505124704 | 17 | 138 | 1.6 | 4.8 | 0.00 | 0.00 | 0.00 | 54 | 1009.5 |
| 20260505124205 | 17 | 258 | 1.6 | 4.8 | 0.00 | 0.00 | 0.00 | 55 | 1009.5 |
| 20260505123704 | 17 | 255 | 0.0 | 4.8 | 0.00 | 0.00 | 0.00 | 54 | 1009.5 |
| 20260505123204 | 17 | 257 | 0.0 | 3.2 | 0.00 | 0.00 | 0.00 | 56 | 1009.5 |
| 20260505122705 | 17 | 258 | 0.0 | 3.2 | 0.00 | 0.00 | 0.00 | 56 | 1009.5 |
| 20260505122205 | 17 | 259 | 0.0 | 3.2 | 0.00 | 0.00 | 0.00 | 56 | 1009.5 |
| 20260505121706 | 17 | 258 | 1.6 | 3.2 | 0.00 | 0.00 | 0.00 | 56 | 1009.6 |
| 20260505121204 | 17 | 259 | 1.6 | 3.2 | 0.00 | 0.00 | 0.00 | 57 | 1009.5 |
| 20260505120704 | 17 | 259 | 1.6 | 4.8 | 0.00 | 0.00 | 0.00 | 56 | 1009.5 |
| 20260505120204 | 17 | 259 | 0.0 | 4.8 | 0.00 | 0.00 | 0.00 | 56 | 1009.4 |
| 20260505115704 | 17 | 259 | 0.0 | 4.8 | 0.00 | 0.00 | 0.00 | 56 | 1009.5 |
| 20260505115204 | 17 | 247 | 1.6 | 8.0 | 0.00 | 0.00 | 0.00 | 57 | 1009.6 |
| 20260505114704 | 17 | 247 | 0.0 | 8.0 | 0.00 | 0.00 | 0.00 | 56 | 1009.5 |
| 20260505114205 | 17 | 275 | 1.6 | 8.0 | 0.00 | 0.00 | 0.00 | 56 | 1009.6 |
| 20260505113705 | 17 | 292 | 3.2 | 6.4 | 0.00 | 0.00 | 0.00 | 56 | 1009.5 |
| 20260505111704 | 17 | 288 | 3.2 | 6.4 | 0.00 | 0.00 | 0.00 | 60 | 1009.7 |
| 20260505111204 | 16 | 285 | 3.2 | 6.4 | 0.00 | 0.00 | 0.00 | 59 | 1009.8 |
| 20260505110704 | 16 | 303 | 0.0 | 8.0 | 0.00 | 0.00 | 0.00 | 61 | 1009.7 |
| 20260505110204 | 16 | 303 | 1.6 | 9.7 | 0.00 | 0.00 | 0.00 | 62 | 1009.8 |
| 20260505102205 | 16 | 292 | 1.6 | 8.0 | 0.00 | 0.00 | 0.00 | 66 | 1010.1 |
| 20260505101711 | 15 | 290 | 1.6 | 8.0 | 0.00 | 0.00 | 0.00 | 66 | 1010.1 |
| 20260505101204 | 15 | 295 | 3.2 | 14.5 | 0.00 | 0.00 | 0.00 | 67 | 1010.2 |
| 20260505100704 | 15 | 269 | 3.2 | 14.5 | 0.00 | 0.00 | 0.00 | 68 | 1010.2 |
| 20260505100204 | 15 | 228 | 1.6 | 14.5 | 0.00 | 0.00 | 0.00 | 69 | 1010.2 |
| 20260505095704 | 15 | 238 | 3.2 | 9.7 | 0.00 | 0.00 | 0.00 | 68 | 1010.3 |
| 20260505095204 | 15 | 234 | 3.2 | 9.7 | 0.00 | 0.00 | 0.00 | 67 | 1010.2 |
| 20260505094704 | 15 | 271 | 3.2 | 9.7 | 0.00 | 0.00 | 0.00 | 67 | 1010.3 |
| 20260505094205 | 15 | 286 | 3.2 | 6.4 | 0.00 | 0.00 | 0.00 | 68 | 1010.3 |
| 20260505093704 | 15 | 295 | 3.2 | 6.4 | 0.00 | 0.00 | 0.00 | 69 | 1010.3 |
| 20260505093204 | 15 | 292 | 1.6 | 6.4 | 0.00 | 0.00 | 0.00 | 71 | 1010.3 |
| 20260505092705 | 15 | 288 | 1.6 | 6.4 | 0.00 | 0.00 | 0.00 | 71 | 1010.3 |
| 20260505092204 | 15 | 298 | 1.6 | 4.8 | 0.00 | 0.00 | 0.00 | 72 | 1010.3 |
| 20260505091704 | 14 | 300 | 1.6 | 4.8 | 0.00 | 0.00 | 0.00 | 74 | 1010.5 |
| 20260505091204 | 13 | 299 | 0.0 | 4.8 | 0.00 | 0.00 | 0.00 | 74 | 1010.4 |
| 20260505090204 | 13 | 298 | 1.6 | 3.2 | 0.00 | 0.00 | 0.00 | 73 | 1010.5 |
| 20260505085704 | 13 | 299 | 1.6 | 3.2 | 0.00 | 0.00 | 0.00 | 75 | 1010.5 |
| 20260505085205 | 13 | 299 | 1.6 | 3.2 | 0.00 | 0.00 | 0.00 | 75 | 1010.6 |
| 20260505084704 | 13 | 299 | 1.6 | 3.2 | 0.00 | 0.00 | 0.00 | 76 | 1010.6 |
| 20260505084210 | 13 | 300 | 1.6 | 4.8 | 0.00 | 0.00 | 0.00 | 77 | 1010.7 |
| 20260505083205 | 12 | 302 | 0.0 | 6.4 | 0.00 | 0.00 | 0.00 | 78 | 1010.6 |
| 20260505082705 | 12 | 303 | 0.0 | 6.4 | 0.00 | 0.00 | 0.00 | 79 | 1010.6 |
| 20260505082204 | 12 | 302 | 0.0 | 4.8 | 0.00 | 0.00 | 0.00 | 79 | 1010.7 |
| 20260505081704 | 12 | 302 | 1.6 | 6.4 | 0.00 | 0.00 | 0.00 | 79 | 1010.7 |
| 20260505081204 | 12 | 303 | 1.6 | 6.4 | 0.00 | 0.00 | 0.00 | 79 | 1010.6 |
| 20260505080705 | 12 | 303 | 1.6 | 6.4 | 0.00 | 0.00 | 0.00 | 78 | 1010.7 |
| 20260505080205 | 12 | 309 | 1.6 | 4.8 | 0.00 | 0.00 | 0.00 | 79 | 1010.6 |
| 20260505075705 | 12 | 305 | 0.0 | 4.8 | 0.00 | 0.00 | 0.00 | 79 | 1010.6 |
| 20260505075205 | 12 | 299 | 1.6 | 4.8 | 0.00 | 0.00 | 0.00 | 80 | 1010.6 |
| 20260505074704 | 12 | 299 | 0.0 | 4.8 | 0.00 | 0.00 | 0.00 | 81 | 1010.6 |
| 20260505074204 | 12 | 299 | 0.0 | 4.8 | 0.00 | 0.00 | 0.00 | 81 | 1010.6 |
| 20260505073705 | 12 | 299 | 1.6 | 4.8 | 0.00 | 0.00 | 0.00 | 81 | 1010.5 |
| 20260505073204 | 12 | 299 | 1.6 | 4.8 | 0.00 | 0.00 | 0.00 | 82 | 1010.5 |
| 20260505072205 | 12 | 299 | 1.6 | 4.8 | 0.00 | 0.00 | 0.00 | 82 | 1010.6 |
| 20260505071706 | 12 | 300 | 1.6 | 4.8 | 0.00 | 0.00 | 0.00 | 83 | 1010.6 |
| 20260505071204 | 12 | 300 | 0.0 | 6.4 | 0.00 | 0.00 | 0.00 | 83 | 1010.7 |
| 20260505070704 | 11 | 300 | 0.0 | 6.4 | 0.00 | 0.00 | 0.00 | 83 | 1010.8 |
| 20260505070214 | 11 | 300 | 1.6 | 6.4 | 0.00 | 0.00 | 0.00 | 84 | 1010.7 |
| 20260505065703 | 11 | 300 | 1.6 | 6.4 | 0.00 | 0.00 | 0.00 | 83 | 1010.8 |
| 20260505065204 | 11 | 288 | 1.6 | 6.4 | 0.00 | 0.00 | 0.00 | 84 | 1010.8 |
| 20260505064705 | 11 | 286 | 1.6 | 3.2 | 0.00 | 0.00 | 0.00 | 83 | 1010.8 |
| 20260505063704 | 11 | 288 | 0.0 | 4.8 | 0.00 | 0.00 | 0.00 | 83 | 1010.7 |
| 20260505062703 | 11 | 288 | 0.0 | 3.2 | 0.00 | 0.00 | 0.00 | 83 | 1010.8 |
| 20260505062205 | 11 | 288 | 0.0 | 3.2 | 0.00 | 0.00 | 0.00 | 82 | 1010.8 |
| 20260505061704 | 11 | 288 | 0.0 | 1.6 | 0.00 | 0.00 | 0.00 | 82 | 1010.9 |
| 20260505061204 | 11 | 288 | 0.0 | 1.6 | 0.00 | 0.00 | 0.00 | 82 | 1010.8 |
| 20260505060704 | 11 | 288 | 0.0 | 1.6 | 0.00 | 0.00 | 0.00 | 82 | 1010.7 |
| 20260505055205 | 11 | 288 | 0.0 | 1.6 | 0.00 | 0.00 | 0.00 | 82 | 1010.8 |
| 20260505054204 | 11 | 288 | 0.0 | 1.6 | 0.00 | 0.00 | 0.00 | 82 | 1010.7 |
| 20260505053205 | 11 | 288 | 0.0 | 1.6 | 0.00 | 0.00 | 0.00 | 82 | 1010.8 |
| 20260505052704 | 11 | 288 | 0.0 | 1.6 | 0.00 | 0.00 | 0.00 | 82 | 1010.8 |
| 20260505052205 | 11 | 288 | 0.0 | 3.2 | 0.00 | 0.00 | 0.00 | 82 | 1010.9 |
| 20260505051704 | 11 | 288 | 0.0 | 3.2 | 0.00 | 0.00 | 0.00 | 82 | 1010.8 |
| 20260505051205 | 11 | 288 | 0.0 | 3.2 | 0.00 | 0.00 | 0.00 | 82 | 1010.9 |
| 20260505050705 | 11 | 288 | 0.0 | 1.6 | 0.00 | 0.00 | 0.00 | 82 | 1010.9 |
| 20260505041704 | 11 | 288 | 0.0 | 1.6 | 0.00 | 0.00 | 0.00 | 81 | 1010.9 |
| 20260505041204 | 11 | 288 | 0.0 | 1.6 | 0.00 | 0.00 | 0.00 | 81 | 1010.8 |
| 20260505040706 | 11 | 288 | 0.0 | 1.6 | 0.00 | 0.00 | 0.00 | 81 | 1010.8 |
| 20260505035705 | 11 | 288 | 0.0 | 1.6 | 0.00 | 0.00 | 0.00 | 81 | 1010.9 |
| 20260505035204 | 11 | 288 | 0.0 | 1.6 | 0.00 | 0.00 | 0.00 | 81 | 1010.9 |
| 20260505034704 | 11 | 288 | 0.0 | 1.6 | 0.00 | 0.00 | 0.00 | 81 | 1010.9 |
| 20260505034205 | 11 | 288 | 0.0 | 1.6 | 0.00 | 0.00 | 0.00 | 81 | 1010.8 |
| 20260505033705 | 11 | 288 | 0.0 | 1.6 | 0.00 | 0.00 | 0.00 | 81 | 1010.8 |
| 20260505033205 | 11 | 288 | 0.0 | 1.6 | 0.00 | 0.00 | 0.00 | 80 | 1010.9 |
| 20260505032704 | 11 | 288 | 0.0 | 1.6 | 0.00 | 0.00 | 0.00 | 80 | 1011.0 |
| 20260505032204 | 11 | 288 | 0.0 | 1.6 | 0.00 | 0.00 | 0.00 | 80 | 1011.0 |
| 20260505031704 | 11 | 288 | 0.0 | 1.6 | 0.00 | 0.00 | 0.00 | 80 | 1011.0 |
| 20260505030204 | 11 | 288 | 0.0 | 1.6 | 0.00 | 0.00 | 0.00 | 80 | 1011.0 |
| 20260505025705 | 11 | 288 | 0.0 | 1.6 | 0.00 | 0.00 | 0.00 | 80 | 1011.2 |
| 20260505025205 | 11 | 288 | 0.0 | 1.6 | 0.00 | 0.00 | 0.00 | 80 | 1011.1 |
| 20260505024704 | 11 | 289 | 0.0 | 1.6 | 0.00 | 0.00 | 0.00 | 80 | 1011.1 |
| 20260505024211 | 11 | 289 | 0.0 | 1.6 | 0.00 | 0.00 | 0.00 | 79 | 1011.1 |
| 20260505023205 | 11 | 289 | 0.0 | 1.6 | 0.00 | 0.00 | 0.00 | 79 | 1011.2 |
| 20260505022731 | 11 | 289 | 0.0 | 1.6 | 0.00 | 0.00 | 0.00 | 79 | 1011.2 |
| 20260505022204 | 11 | 289 | 0.0 | 3.2 | 0.00 | 0.00 | 0.00 | 79 | 1011.2 |
| 20260505021704 | 11 | 289 | 0.0 | 3.2 | 0.00 | 0.00 | 0.00 | 79 | 1011.1 |
| 20260505021204 | 11 | 289 | 0.0 | 3.2 | 0.00 | 0.00 | 0.00 | 79 | 1011.2 |
| 20260505020704 | 11 | 290 | 0.0 | 1.6 | 0.00 | 0.00 | 0.00 | 79 | 1011.2 |
| 20260505015704 | 11 | 290 | 0.0 | 1.6 | 0.00 | 0.00 | 0.00 | 79 | 1011.1 |
| 20260505015205 | 11 | 290 | 0.0 | 1.6 | 0.00 | 0.00 | 0.00 | 79 | 1011.1 |
| 20260505014704 | 11 | 290 | 0.0 | 1.6 | 0.00 | 0.00 | 0.00 | 79 | 1011.1 |
| 20260505014205 | 11 | 290 | 0.0 | 1.6 | 0.00 | 0.00 | 0.00 | 79 | 1011.1 |
| 20260505013704 | 11 | 290 | 0.0 | 1.6 | 0.00 | 0.00 | 0.00 | 79 | 1011.2 |
| 20260505013207 | 11 | 290 | 0.0 | 3.2 | 0.00 | 0.00 | 0.00 | 79 | 1011.3 |
| 20260505011704 | 11 | 290 | 0.0 | 1.6 | 0.00 | 0.00 | 0.00 | 80 | 1011.6 |
| 20260505011204 | 11 | 290 | 0.0 | 1.6 | 0.00 | 0.00 | 0.00 | 80 | 1011.7 |
| 20260505010704 | 11 | 290 | 0.0 | 1.6 | 0.00 | 0.00 | 0.00 | 80 | 1011.8 |
| 20260505010205 | 11 | 290 | 0.0 | 1.6 | 0.00 | 0.00 | 0.00 | 80 | 1011.7 |
| 20260505005204 | 11 | 290 | 0.0 | 3.2 | 0.00 | 0.00 | 0.00 | 80 | 1011.8 |
| 20260505004704 | 11 | 290 | 0.0 | 3.2 | 0.00 | 0.00 | 0.00 | 80 | 1011.7 |
| 20260505004205 | 11 | 290 | 0.0 | 1.6 | 0.00 | 0.00 | 0.00 | 80 | 1011.7 |
| 20260505003705 | 11 | 290 | 0.0 | 1.6 | 0.00 | 0.00 | 0.00 | 81 | 1011.7 |
| 20260505003204 | 11 | 290 | 0.0 | 3.2 | 0.00 | 0.00 | 0.00 | 81 | 1011.7 |
| 20260505002705 | 11 | 290 | 0.0 | 3.2 | 0.00 | 0.00 | 0.00 | 81 | 1011.7 |
| 20260505002205 | 11 | 290 | 0.0 | 3.2 | 0.00 | 0.00 | 0.00 | 81 | 1011.8 |
| 20260505001704 | 11 | 289 | 0.0 | 1.6 | 0.00 | 0.00 | 0.00 | 81 | 1011.8 |
| 20260505001205 | 11 | 289 | 0.0 | 1.6 | 0.00 | 0.00 | 0.00 | 81 | 1011.9 |
| 20260505000707 | 12 | 289 | 0.0 | 1.6 | 0.00 | 0.00 | 0.00 | 81 | 1011.9 |
| 20260504235705 | 12 | 289 | 0.0 | 3.2 | 0.00 | 0.00 | 0.00 | 81 | 1011.9 |
| 20260504235204 | 12 | 289 | 0.0 | 3.2 | 0.00 | 0.00 | 0.00 | 82 | 1011.9 |
| 20260504234706 | 12 | 289 | 0.0 | 3.2 | 0.00 | 0.00 | 0.00 | 81 | 1012.0 |
| 20260504234205 | 12 | 289 | 0.0 | 3.2 | 0.00 | 0.00 | 0.00 | 82 | 1012.0 |
| 20260504233705 | 12 | 289 | 0.0 | 3.2 | 0.00 | 0.00 | 0.00 | 82 | 1012.1 |
| 20260504233204 | 12 | 289 | 0.0 | 3.2 | 0.00 | 0.00 | 0.00 | 82 | 1012.1 |
| 20260504232710 | 12 | 292 | 0.0 | 1.6 | 0.00 | 0.00 | 0.00 | 82 | 1012.2 |
| 20260504232205 | 12 | 296 | 0.0 | 1.6 | 0.00 | 0.00 | 0.00 | 82 | 1012.1 |
| 20260504231705 | 12 | 296 | 0.0 | 3.2 | 0.00 | 0.00 | 0.00 | 82 | 1012.1 |
| 20260504231214 | 12 | 296 | 0.0 | 3.2 | 0.00 | 0.00 | 0.00 | 82 | 1012.2 |
| 20260504225705 | 12 | 296 | 0.0 | 1.6 | 0.00 | 0.00 | 0.00 | 82 | 1012.1 |
| 20260504225205 | 12 | 298 | 0.0 | 3.2 | 0.00 | 0.00 | 0.00 | 82 | 1012.1 |
| 20260504224704 | 12 | 298 | 0.0 | 3.2 | 0.00 | 0.00 | 0.00 | 82 | 1012.1 |
| 20260504224204 | 12 | 298 | 0.0 | 1.6 | 0.00 | 0.00 | 0.00 | 83 | 1012.0 |
| 20260504223706 | 12 | 298 | 0.0 | 1.6 | 0.00 | 0.00 | 0.00 | 83 | 1012.1 |
| 20260504222705 | 12 | 298 | 0.0 | 1.6 | 0.00 | 0.00 | 0.00 | 83 | 1012.1 |
| 20260504221704 | 13 | 298 | 0.0 | 1.6 | 0.00 | 0.00 | 0.00 | 83 | 1012.1 |
| 20260504221205 | 13 | 298 | 0.0 | 1.6 | 0.00 | 0.00 | 0.00 | 83 | 1012.0 |
| 20260504220705 | 13 | 298 | 0.0 | 1.6 | 0.00 | 0.00 | 0.00 | 83 | 1012.0 |
| 20260504215205 | 13 | 298 | 0.0 | 3.2 | 0.00 | 0.00 | 0.00 | 83 | 1012.1 |
| 20260504214705 | 13 | 298 | 0.0 | 3.2 | 0.00 | 0.00 | 0.00 | 83 | 1012.1 |
| 20260504214204 | 13 | 298 | 0.0 | 1.6 | 0.00 | 0.00 | 0.00 | 83 | 1012.1 |
| 20260504213704 | 13 | 299 | 0.0 | 1.6 | 0.00 | 0.00 | 0.00 | 83 | 1012.1 |
| 20260504212204 | 13 | 299 | 0.0 | 0.0 | 0.00 | 0.00 | 0.00 | 83 | 1012.1 |
| 20260504211704 | 13 | 299 | 0.0 | 1.6 | 0.00 | 0.00 | 0.00 | 83 | 1012.1 |
| 20260504211204 | 13 | 299 | 0.0 | 1.6 | 0.00 | 0.00 | 0.00 | 83 | 1012.1 |
| 20260504210704 | 13 | 299 | 0.0 | 1.6 | 0.00 | 0.00 | 0.00 | 83 | 1012.1 |
| 20260504210204 | 13 | 299 | 0.0 | 1.6 | 0.00 | 0.00 | 0.00 | 83 | 1012.2 |
| 20260504205704 | 13 | 299 | 0.0 | 1.6 | 0.00 | 0.00 | 0.00 | 83 | 1012.1 |
| 20260504205204 | 13 | 299 | 0.0 | 1.6 | 0.00 | 0.00 | 0.00 | 83 | 1012.1 |
| 20260504204704 | 13 | 299 | 0.0 | 1.6 | 0.00 | 0.00 | 0.00 | 83 | 1012.1 |
| 20260504204204 | 13 | 299 | 0.0 | 0.0 | 0.00 | 0.00 | 0.00 | 83 | 1012.1 |
| 20260504203704 | 13 | 299 | 0.0 | 1.6 | 0.00 | 0.00 | 0.00 | 83 | 1012.1 |
| 20260504203206 | 13 | 299 | 0.0 | 1.6 | 0.00 | 0.00 | 0.00 | 83 | 1012.2 |
| 20260504202704 | 13 | 299 | 0.0 | 1.6 | 0.00 | 0.00 | 0.00 | 83 | 1012.1 |
| 20260504202204 | 13 | 299 | 0.0 | 1.6 | 0.00 | 0.00 | 0.00 | 83 | 1012.2 |
| 20260504201704 | 13 | 299 | 0.0 | 1.6 | 0.00 | 0.00 | 0.00 | 83 | 1012.2 |
| 20260504201205 | 13 | 299 | 0.0 | 1.6 | 0.00 | 0.00 | 0.00 | 83 | 1012.2 |
| 20260504200204 | 13 | 299 | 0.0 | 1.6 | 0.00 | 0.00 | 0.00 | 83 | 1012.1 |
| 20260504195705 | 13 | 299 | 0.0 | 1.6 | 0.00 | 0.00 | 0.00 | 83 | 1012.1 |
| 20260504195204 | 13 | 299 | 0.0 | 1.6 | 0.00 | 0.00 | 0.00 | 82 | 1012.1 |
| 20260504194706 | 13 | 299 | 0.0 | 1.6 | 0.00 | 0.00 | 0.00 | 82 | 1012.0 |
| 20260504194205 | 13 | 299 | 0.0 | 1.6 | 0.00 | 0.00 | 0.00 | 82 | 1011.9 |
| 20260504193704 | 13 | 299 | 0.0 | 1.6 | 0.00 | 0.00 | 0.00 | 82 | 1011.8 |
| 20260504193204 | 14 | 299 | 0.0 | 3.2 | 0.00 | 0.00 | 0.00 | 82 | 1011.8 |
| 20260504192705 | 14 | 299 | 0.0 | 3.2 | 0.00 | 0.00 | 0.00 | 82 | 1011.8 |
| 20260504192204 | 14 | 299 | 0.0 | 1.6 | 0.00 | 0.00 | 0.00 | 81 | 1011.8 |
| 20260504191205 | 14 | 299 | 0.0 | 3.2 | 0.00 | 0.00 | 0.00 | 81 | 1011.7 |
| 20260504190204 | 15 | 300 | 0.0 | 3.2 | 0.00 | 0.00 | 0.00 | 79 | 1011.6 |
| 20260504185705 | 15 | 299 | 0.0 | 1.6 | 0.00 | 0.00 | 0.00 | 79 | 1011.5 |
| 20260504185204 | 15 | 299 | 0.0 | 3.2 | 0.00 | 0.00 | 0.00 | 78 | 1011.5 |
| 20260504184705 | 15 | 299 | 0.0 | 3.2 | 0.00 | 0.00 | 0.00 | 78 | 1011.5 |
| 20260504184204 | 15 | 299 | 0.0 | 3.2 | 0.00 | 0.00 | 0.00 | 78 | 1011.5 |
| 20260504183705 | 15 | 299 | 0.0 | 3.2 | 0.00 | 0.00 | 0.00 | 77 | 1011.5 |
| 20260504183208 | 15 | 299 | 0.0 | 3.2 | 0.00 | 0.00 | 0.00 | 76 | 1011.5 |
| 20260504182704 | 15 | 299 | 0.0 | 1.6 | 0.00 | 0.00 | 0.00 | 76 | 1011.4 |
| 20260504182204 | 15 | 299 | 0.0 | 4.8 | 0.00 | 0.00 | 0.00 | 76 | 1011.4 |
| 20260504181704 | 16 | 299 | 0.0 | 4.8 | 0.00 | 0.00 | 0.00 | 76 | 1011.3 |
| 20260504181204 | 16 | 299 | 0.0 | 4.8 | 0.00 | 0.00 | 0.00 | 76 | 1011.3 |
| 20260504180704 | 16 | 298 | 1.6 | 4.8 | 0.00 | 0.00 | 0.00 | 77 | 1011.3 |
| 20260504180203 | 16 | 296 | 1.6 | 3.2 | 0.00 | 0.00 | 0.00 | 77 | 1011.4 |
| 20260504175704 | 15 | 296 | 0.0 | 3.2 | 0.00 | 0.00 | 0.00 | 78 | 1011.4 |
| 20260504175204 | 15 | 296 | 0.0 | 3.2 | 0.00 | 0.00 | 0.00 | 78 | 1011.4 |
| 20260504174704 | 15 | 296 | 1.6 | 6.4 | 0.00 | 0.00 | 0.00 | 78 | 1011.4 |
| 20260504173704 | 15 | 296 | 0.0 | 6.4 | 0.00 | 0.00 | 0.00 | 77 | 1011.5 |
| 20260504173204 | 15 | 302 | 1.6 | 6.4 | 0.00 | 0.00 | 0.00 | 78 | 1011.4 |
| 20260504172704 | 15 | 302 | 1.6 | 6.4 | 0.00 | 0.00 | 0.00 | 78 | 1011.4 |
| 20260504172204 | 15 | 300 | 1.6 | 6.4 | 0.00 | 0.00 | 0.00 | 78 | 1011.5 |
| 20260504171703 | 15 | 299 | 1.6 | 4.8 | 0.00 | 0.00 | 0.00 | 77 | 1011.5 |
| 20260504171205 | 15 | 292 | 0.0 | 6.4 | 0.00 | 0.00 | 0.00 | 78 | 1011.5 |
| 20260504170705 | 15 | 290 | 0.0 | 6.4 | 0.00 | 0.00 | 0.00 | 77 | 1011.6 |
| 20260504170205 | 15 | 290 | 1.6 | 4.8 | 0.00 | 0.00 | 0.00 | 78 | 1011.6 |
| 20260504160204 | 16 | 237 | 0.0 | 3.2 | 0.00 | 0.00 | 0.00 | 78 | 1011.6 |